7 * 24
多渠道服务支持
GOES 2(Geostationary Operational Environmental Satellite 2)是美国国家气象局(NOAA)于1975年发射的第二颗地球静止轨道气象卫星。它主要用于监测北美地区的天气变化,提供云层覆盖、风暴发展和大气温度等关键数据。GOES 2 在气象预报、灾害预警和气候研究中发挥了重要作用,其运行标志着美国静止气象卫星系统的成熟。尽管最终被后续卫星取代,GOES 2 在提升天气预测准确性方面具有重要历史意义。
美国
(US)
| 数据来源 | 国际轨道数据 |
| 星历时间: | 2025-11-12T08:13:39+0800 22小时前 查看轨道信息 |
| 半长轴: | 42411.962km |
| 偏心率: | 0.0011785 |
| 轨道倾角: | 6.940° |
| 近地点辐角 | 38.953° |
| 升交点赤经 | 295.149° |
| 平近点角 | 190.079° |
| 近地点: | 35983.844km |
| 远地点: | 36083.81km |
| 周期: | 1448.746分钟 |
| 每日圈数: | 0.993963 |